This is the latest recevied weather packets stored in our database for station/object SQ9NFI-4. If no packets are shown the sender has not sent any weather packets the latest 10 day(s).
| Time | Temp. | Humidity | Pressure | Rain* | Wind** | Luminosity | Snow |
|---|---|---|---|---|---|---|---|
| 1777884404 | 23.89° C | 27% | 1016.9 hPa | 0 mm | - | 629 W/m² | - |
| 1777884104 | 23.89° C | 29% | 1016.9 hPa | 0 mm | - | 623 W/m² | - |
| 1777883804 | 24.44° C | 29% | 1016.9 hPa | 0 mm | - | 614 W/m² | - |
| 1777883504 | 23.89° C | 29% | 1016.9 hPa | 0 mm | - | 609 W/m² | - |
| 1777883204 | 23.33° C | 28% | 1016.9 hPa | 0 mm | - | 600 W/m² | - |
| 1777882904 | 23.89° C | 31% | 1016.9 hPa | 0 mm | - | 592 W/m² | - |
| 1777882604 | 22.78° C | 29% | 1016.9 hPa | 0 mm | - | 583 W/m² | - |
| 1777882304 | 22.22° C | 28% | 1016.9 hPa | 0 mm | - | 572 W/m² | - |
| 1777882004 | 22.78° C | 29% | 1016.9 hPa | 0 mm | - | 580 W/m² | - |
| 1777881704 | 22.22° C | 28% | 1016.6 hPa | 0 mm | - | 566 W/m² | - |
| 1777881404 | 21.67° C | 28% | 1016.6 hPa | 0 mm | - | 552 W/m² | - |
| 1777881104 | 22.22° C | 31% | 1016.6 hPa | 0 mm | - | 539 W/m² | - |
| 1777880804 | 22.22° C | 29% | 1016.9 hPa | 0 mm | - | 535 W/m² | - |
| 1777880504 | 21.11° C | 30% | 1016.9 hPa | 0 mm | - | 526 W/m² | - |
| 1777880204 | 21.11° C | 31% | 1016.9 hPa | 0 mm | - | 515 W/m² | - |
| 1777879904 | 21.11° C | 31% | 1016.9 hPa | 0 mm | - | 501 W/m² | - |
| 1777879604 | 21.11° C | 33% | 1016.9 hPa | 0 mm | - | 489 W/m² | - |
| 1777879516 | 21.11° C | 33% | 1016.9 hPa | 0 mm | - | 489 W/m² | - |
| 1777879216 | 20.56° C | 32% | 1016.9 hPa | 0 mm | - | 469 W/m² | - |
| 1777878916 | 21.67° C | 34% | 1016.9 hPa | 0 mm | - | 455 W/m² | - |
| 1777878616 | 20.56° C | 32% | 1016.9 hPa | 0 mm | - | 454 W/m² | - |
| 1777878316 | 20.56° C | 32% | 1016.9 hPa | 0 mm | - | 424 W/m² | - |
| 1777878016 | 20.56° C | 32% | 1016.9 hPa | 0 mm | - | 427 W/m² | - |
| 1777877716 | 20.56° C | 32% | 1016.9 hPa | 0 mm | - | 407 W/m² | - |
| 1777877416 | 20.56° C | 32% | 1016.9 hPa | 0 mm | - | 401 W/m² | - |
* Rain latest hour (hover to see other rain measurements)
** Current wind speed in m/s (hover to see current wind gust speed)